Location: Beang
(6.6177°N, 10.9863°W)
Time: 01:10:26
(UTC+00:00)

MOS 1-B - Pass Details

Date: 07 June 2020
Orbit: 906 x 913 km, 99.4° (Epoch: 13 July)

Event Time Altitude Azimuth Distance (km) Brightness Sun altitude
Rises 05:54:11 0° 14° (NNE) 3,527 8.0 -8.5°
Reaches altitude 10° 05:56:35 10° 14° (NNE) 2,588 7.3 -8.0°
Maximum altitude 06:02:22 87° 104° (ESE) 915 4.5 -6.7°
Drops below altitude 10° 06:08:10 10° 192° (SSW) 2,596 6.4 -5.4°
Sets 06:10:35 0° 193° (SSW) 3,538 7.1 -4.8°
